Regional Weather Roundup
Issued by NWS

Home | Current Version | Previous Version | Graphics & Text | Print | Product List | Glossary On
Versions: 1 2 3 4 5 6 7 8 9 10 11 12 13 14 15 16 17 18 19 20 21 22 23 24 25 26 27 28 29 30 31 32 33 34 35 36 37 38 39 40 41 42 43 44 45 46 47 48 49 50
000
ASUS45 KCYS 241810
RWRWY

WYOMING REGIONAL WEATHER ROUNDUP
NATIONAL WEATHER SERVICE CHEYENNE WY
1200 PM MDT THU JUL 24 2014

NOTE:  "FAIR" INDICATES FEW OR NO CLOUDS BELOW 12,000 FEET
WITH NO SIGNIFICANT WEATHER AND/OR OBSTRUCTIONS TO VISIBILITY.

WYZ001-241900-
YELLOWSTONE NATIONAL PARK

CITY           SKY/WX    TMP DP  RH WIND       PRES   REMARKS
LK YELLOWSTONE   N/A     68  29  23 W10G24    30.27R
6HR MIN TEMP:  42; 6HR MAX TEMP:  69;

W YELLOWSTONE  NOT AVBL

$$
WYZ002>013-054>058-071-098>099-241900-
NORTHERN WYOMING

CITY           SKY/WX    TMP DP  RH WIND       PRES   REMARKS
JACKSON        SUNNY     79  36  21 SW7       30.16F
CODY           NOT AVBL
GREYBULL       SUNNY     96  38  13 NE3       29.84F HX  91
6HR MIN TEMP:  67; 6HR MAX TEMP:  96;

WORLAND        SUNNY     99  39  12 SW20G32   29.86F HX  94
6HR MIN TEMP:  72; 6HR MAX TEMP:  99;

SHERIDAN       SUNNY     94  57  28 VRB3      29.84F HX  92
6HR MIN TEMP:  59; 6HR MAX TEMP:  94;

BUFFALO        SUNNY     96  38  13 W21G29    29.93F HX  91
6HR MIN TEMP:  80; 6HR MAX TEMP:  96;

GILLETTE       SUNNY     98  45  16 W16G28    29.86F HX  94
6HR MIN TEMP:  77; 6HR MAX TEMP:  98;

HULETT         FAIR      91  55  29 MISG      29.89
NEWCASTLE      FAIR      97  37  12 MISG      29.90  HX  92

$$
WYZ014>020-022>026-101>103-241900-
CENTRAL WYOMING

CITY           SKY/WX    TMP DP  RH WIND       PRES   REMARKS
BIG PINEY      SUNNY     83  38  20 W23G29    30.22S
6HR MIN TEMP:  48; 6HR MAX TEMP:  83;

PINEDALE       PTCLDY    81  32  17 SW25      30.21F
DUBOIS         FAIR      77  34  20 W28G33    30.17F
LANDER         MOSUNNY   90  36  14 SW23G35   30.05F
6HR MIN TEMP:  74; 6HR MAX TEMP:  91;

RIVERTON       MOSUNNY   89  32  13 SW21G32   30.02F
6HR MIN TEMP:  74; 6HR MAX TEMP:  91;

CASPER         PTSUNNY   92  37  14 SW22G35   30.04S
6HR MIN TEMP:  68; 6HR MAX TEMP:  94;

DOUGLAS        PTSUNNY   93  42  17 W16G30    30.01S
6HR MIN TEMP:  62; 6HR MAX TEMP:  98;


$$
WYZ021-027>030-104>119-241900-
SOUTHERN WYOMING

CITY           SKY/WX    TMP DP  RH WIND       PRES   REMARKS
EVANSTON       SUNNY     81  41  24 SW21G33   30.25S
6HR MIN TEMP:  67; 6HR MAX TEMP:  82;

KEMMERER       PTCLDY    81  32  17 SW21G31   30.25S
FORT BRIDGER   FAIR      86  37  17 SW21G28   30.27R
ROCK SPRINGS   PTSUNNY   82  44  26 S24G30    30.22F
6HR MIN TEMP:  66; 6HR MAX TEMP:  83; 6HR PCP: TRACE;

DIXON          CLOUDY    79  42  26 SW18G24   30.31S
RAWLINS        MOSUNNY   84  38  19 SW31G41   30.23F
6HR MIN TEMP:  69; 6HR MAX TEMP:  86;

SARATOGA       FAIR      79  41  25 SW24G33   30.29S
LARAMIE        MOSUNNY   84  44  24 SW25G32   30.26F
6HR MIN TEMP:  60; 6HR MAX TEMP:  84;

CHEYENNE       MOSUNNY   88  46  23 W26G41    30.16S
6HR MIN TEMP:  64; 6HR MAX TEMP:  90;

TORRINGTON     PTSUNNY   95  47  19 W15       29.95F HX  91
6HR MIN TEMP:  61; 6HR MAX TEMP:  96;

PINE BLUFFS    FAIR      95  39  14 W14G24    30.07S HX  91

$$



USA.gov is the U.S. government's official web portal to all federal, state and local government web resources and services.